Regional Weather Roundup
Issued by NWS

Home | Current Version | Previous Version | Text Only | Print | Product List | Glossary On
Versions: 1 2 3 4 5 6 7 8 9 10 11 12 13 14 15 16 17 18 19 20 21 22 23 24 25 26 27 28 29 30 31 32 33 34 35 36 37 38 39 40 41 42 43 44 45 46 47 48 49 50
000
ASUS43 KTOP 250508
RWRKS

WEATHER ROUNDUP FOR KANSAS
NATIONAL WEATHER SERVICE GOODLAND KS
1200 AM CDT MON SEP 25 2017

NOTE:  "FAIR" INDICATES FEW OR NO CLOUDS BELOW 12,000 FEET WITH NO
SIGNIFICANT WEATHER AND/OR OBSTRUCTIONS TO VISIBILITY.

KSZ001>006-013>018-027>032-041>047-250600-
NORTHWEST KANSAS

CITY           SKY/WX    TMP DP  RH WIND       PRES   REMARKS
GOODLAND       CLOUDY    53  52  96 N8        29.96S
HAYS           MOCLDY    66  64  93 N10       29.89S
HILL CITY      CLOUDY    59  58  96 NE9       29.92S
RUSSELL        CLOUDY    72  61  68 S10       29.86F
$$

KSZ061>065-074>080-084>089-250600-
SOUTHWEST KANSAS

CITY           SKY/WX    TMP DP  RH WIND       PRES   REMARKS
DODGE CITY     MOCLDY    69  64  84 S16       29.90S
ELKHART          N/A     66  67 100 S17         N/A
GARDEN CITY    PTCLDY    66  64  93 S10       29.89R
LIBERAL        CLEAR     66  65  96 SE13      29.90S
PRATT          LGT RAIN  72  63  73 S16G24    29.91S
$$

KSZ066>073-081>083-090>101-250600-
SOUTHEAST KANSAS

CITY           SKY/WX    TMP DP  RH WIND       PRES   REMARKS
CHANUTE        PTCLDY    73  68  84 SE5       29.93F
COFFEYVILLE    CLOUDY    75  67  76 S5        29.93R
HUTCHINSON     CLEAR     74  65  73 SE10      29.89F
MEDICINE LODGE   N/A     73  60  63 S5        29.90R
NEWTON         CLEAR     71  63  75 SE8       29.92F
PARSONS        PTCLDY    74  67  78 S3        29.94S
WICHITA INTL   PTCLDY    75  66  73 SE12      29.90S
WICHITA JABRA  CLEAR     73  65  75 SE7       29.91S
WICHITA MCCONL CLEAR     75  63  66 S8        29.90F
WINFIELD       CLOUDY    73  66  78 SE6       29.92F
$$

KSZ007>012-019>026-033>040-048>060-102>105-250600-
NORTHEAST KANSAS

CITY           SKY/WX    TMP DP  RH WIND       PRES   REMARKS
CONCORDIA      MOCLDY    67  67 100 E6        29.90R
EMPORIA        CLEAR     72  65  78 S8        29.92S
LAWRENCE       CLEAR     71  68  90 E5        29.92F
MANHATTAN      CLEAR     74  65  73 W3        29.89F
MARYSVILLE     CLOUDY    68  68 100 CALM      29.92S
OLATHE IND     CLEAR     73  65  75 S8        29.94F
OLATHE EXE     CLEAR     71  67  87 S7        29.94F
SALINA         PTCLDY    73  66  78 SE5       29.89S
TOPEKA BILLARD PTCLDY    75  68  78 SE8       29.91F
TOPEKA FORBES  PTCLDY    73  68  84 SE7       29.92F
$$




USA.gov is the U.S. government's official web portal to all federal, state and local government web resources and services.